CAPE
10 10 8 4 7 0 0 0 0 0 0 0 0 0 0 0 0 0 0 0 0 0 0 0 0 0 0 0 0 2 2 5 6 0 0 0 1 1 7 10 4 3 1 1
11 8 4 1 2 0 0 0 0 0 0 0 0 0 0 0 0 0 0 0 0 0 0 0 0 0 0 0 0 8 2 5 4 6 1 0 2 0 0 1 2 1 2 4
7 8 1 0 0 0 0 0 0 0 0 0 0 0 0 0 0 0 0 0 0 0 0 0 0 0 0 0 0 0 2 2 1 5 3 1 5 0 0 0 6 1 2 1
4 5 1 0 0 0 0 0 2 0 0 0 0 0 0 0 0 0 0 0 0 0 0 0 0 0 0 0 0 0 0 2 1 0 2 0 0 0 0 0 0 1 0 0
3 2 0 0 0 0 0 0 0 0 0 0 0 0 0 0 0 0 0 0 0 0 0 0 0 0 0 0 0 0 0 7 0 2 0 0 1 0 0 0 0 0 0 1
2 1 0 0 0 0 0 0 0 0 0 0 0 0 0 0 0 0 0 0 0 0 0 0 0 0 0 0 0 0 0 0 0 1 0 1 3 1 2 4 5 0 2 7
0 0 0 0 0 0 0 3 0 0 0 0 0 0 0 0 0 0 0 0 0 0 0 0 0 0 0 0 0 0 0 0 0 0 0 6 2 0 0 2 4 4 5 12
0 0 0 0 0 0 0 1 0 0 0 0 0 0 0 0 0 0 0 0 0 0 0 0 0 0 0 0 0 0 0 0 0 3 2 0 1 0 0 0 5 6 3 2
0 0 0 0 0 0 0 0 0 0 0 0 2 0 0 0 0 0 0 0 0 0 0 0 0 0 0 0 0 0 0 0 0 2 2 6 1 0 0 0 9 0 0 0
1 0 0 0 0 0 0 0 0 0 2 2 1 0 2 1 2 3 0 0 0 0 1 1 1 0 0 0 0 0 0 0 0 3 5 1 0 0 0 1 3 0 0 0
0 0 0 0 0 0 0 0 0 0 2 1 0 0 1 1 3 6 0 0 1 2 4 4 0 2 0 0 0 0 0 0 2 0 2 1 0 0 0 2 0 0 0 0
2 0 0 0 0 0 0 0 0 0 0 0 0 0 0 0 1 2 4 2 3 6 8 5 3 1 0 0 2 0 0 1 1 0 5 0 0 0 1 2 0 0 1 1
4 0 0 0 0 0 0 0 0 0 0 2 0 0 0 0 0 1 5 4 1 2 0 9 2 2 0 2 0 0 0 0 1 0 1 0 0 2 0 0 0 1 1 2
2 2 0 0 0 0 0 0 0 0 0 0 0 0 0 0 0 0 1 1 0 0 2 7 5 2 0 0 1 0 1 0 0 0 0 0 0 0 0 0 0 0 1 2
1 0 1 0 0 0 0 0 0 0 0 0 0 0 0 0 0 0 0 0 1 5 7 7 5 1 0 0 0 2 1 0 0 0 0 4 1 0 0 0 0 0 0 0
1 0 0 0 0 0 0 0 0 0 0 0 0 0 0 0 0 0 0 0 0 1 4 4 1 0 0 7 0 0 0 0 2 5 0 0 0 0 0 0 0 0 0 0
3 0 0 0 0 0 0 0 0 0 0 0 0 0 0 0 0 0 0 0 0 1 0 3 2 1 1 0 0 0 0 0 0 0 0 0 0 1 0 0 0 1 0 0
4 2 1 0 0 0 0 1 0 0 0 0 0 0 0 0 0 0 0 2 0 0 0 0 1 0 0 0 0 0 0 0 0 0 0 0 0 0 0 0 0 0 0 0
15 2 0 0 0 0 0 0 0 0 0 0 0 0 0 0 0 0 0 0 4 0 1 0 0 0 0 0 0 0 0 0 0 0 0 0 0 0 0 0 0 1 1 8
12 0 0 0 0 0 0 0 0 0 0 0 0 0 0 0 0 0 0 0 0 4 0 0 3 0 0 0 0 0 0 0 0 0 0 0 0 0 0 0 0 0 2 3
0 0 0 0 0 0 0 0 0 0 0 0 0 0 0 0 4 2 0 1 0 1 0 0 0 0 0 0 0 0 0 0 0 0 0 0 0 1 0 0 0 1 1 3
0 0 0 0 0 0 0 0 0 0 0 0 0 0 1 2 2 4 0 1 0 0 0 0 0 0 0 0 0 0 0 0 0 0 0 0 0 0 0 1 0 1 1 1
0 0 0 0 0 0 0 0 0 0 0 1 1 1 1 2 1 0 0 0 0 0 0 0 0 0 0 0 0 0 0 0 0 0 0 0 0 0 0 0 0 0 1 2
0 0 0 0 0 0 0 0 0 0 0 1 1 2 2 1 2 0 0 0 0 0 0 0 0 0 0 0 0 0 0 0 0 0 0 0 0 0 0 0 1 2 3 1
0 0 0 0 0 0 0 0 0 0 0 1 1 0 0 0 0 0 0 0 0 0 0 0 0 0 0 0 0 0 0 0 0 0 0 0 0 0 0 0 1 1 1 2
0 0 0 0 0 0 0 0 0 0 0 0 0 0 0 0 0 0 0 0 0 0 0 0 0 0 0 0 0 0 0 0 0 0 0 0 0 0 0 0 1 1 0 0
0 0 0 0 0 0 0 0 0 0 0 0 0 0 0 0 0 0 0 0 0 0 0 0 0 0 0 0 0 0 0 0 0 0 0 0 0 0 0 0 0 2 0 0
CIN
-0 -0 -0 -0 -0 -0 -0 -0 -0 -0 -0 -0 -0 -0 -0 -0 -0 -0 -0 -0 -0 -0 -0 -0 -0 -0 -0 -0 -0 -0 -0 -0 -0 -0 -0 -0 -0 -0 -0 -0 -0 -1 -0 -0
-0 -0 -0 -0 -0 -0 -0 -0 -0 -0 -0 -0 -0 -0 -0 -0 -0 -0 -0 -0 -0 -0 -0 -0 -0 -0 -0 -0 -0 -0 -0 -0 -0 -0 -0 -0 -0 -0 -0 -0 -0 -0 -0 -0
-0 -0 -0 -0 -0 -0 -0 -0 -0 -0 -0 -0 -0 -0 -0 -0 -0 -0 -0 -0 -0 -0 -0 -0 -0 -0 -0 -0 -0 -0 -0 -0 -0 -0 -0 -0 -0 -0 -0 -0 -0 -0 -0 -0
-0 -0 -0 -0 -0 -0 -0 -0 -0 -0 -0 -0 -0 -0 -0 -0 -0 -0 -0 -0 -0 -0 -0 -0 -0 -0 -0 -0 -0 -0 -0 -0 -0 -0 -0 -0 -1 -0 -0 -0 -0 -0 -0 -0
-0 -0 -0 -0 -0 -0 -0 -0 -0 -0 -0 -0 -0 -0 -0 -0 -0 -0 -0 -0 -0 -0 -0 -0 -0 -0 -0 -0 -0 -0 -0 -0 -0 -0 -1 -0 -0 -0 -0 -0 -0 -0 -0 -0
-0 -0 -0 -0 -0 -0 -0 -0 -0 -0 -0 -0 -0 -0 -0 -0 -0 -0 -0 -0 -0 -0 -0 -0 -0 -0 -0 -0 -0 -0 -0 -0 -0 -1 -0 -0 -0 -0 -0 -0 -0 -0 -0 -0
-0 -0 -0 -0 -0 -0 -0 -0 -0 -0 -0 -0 -0 -0 -0 -0 -0 -0 -0 -0 -0 -0 -0 -0 -0 -0 -0 -0 -0 -0 -0 -0 -0 -0 -0 -0 -0 -0 -0 -0 -0 -0 -0 -0
-0 -0 -0 -0 -0 -0 -0 -0 -0 -0 -0 -0 -0 -0 -0 -0 -0 -0 -0 -0 -0 -0 -0 -0 -0 -0 -0 -0 -0 -0 -0 -0 -0 -0 -0 -0 -0 -0 -0 -0 -0 -0 -0 -0
-0 -0 -0 -0 -0 -0 -0 -0 -0 -0 -0 -0 -0 -0 -0 -0 -0 -0 -0 -0 -0 -0 -0 -0 -0 -0 -0 -0 -0 -0 -0 -0 -1 -0 -0 -0 -0 -0 -0 -0 -0 -0 -0 -0
-0 -0 -0 -0 -0 -0 -0 -0 -0 -0 -0 -0 -0 -0 -0 -0 -0 -0 -0 -0 -0 -0 -0 -0 -0 -0 -0 -0 -0 -0 -0 -0 -0 -0 -0 -0 -0 -0 -0 -0 -0 -0 -0 -0
-0 -0 -0 -0 -0 -0 -0 -0 -0 -0 -0 -0 -0 -0 -0 -0 -0 -0 -0 -0 -0 -0 -0 -0 -0 -0 -0 -0 -0 -0 -0 -0 -0 -0 -0 -0 -0 -0 -0 -0 -0 -0 -0 -0
-0 -0 -0 -0 -0 -0 -0 -0 -0 -0 -0 -0 -0 -0 -0 -0 -0 -0 -0 -0 -0 -0 -0 -0 -0 -0 -0 -0 -0 -0 -0 -0 -0 -0 -0 -0 -0 -0 -0 -0 -0 -0 -0 -0
-2 -1 -0 -0 -0 -0 -0 -0 -0 -0 -0 -0 -0 -0 -0 -0 -0 -0 -0 -0 -0 -0 -0 -0 -0 -0 -0 -0 -0 -0 -0 -0 -0 -0 -0 -0 -0 -0 -0 -0 -0 -0 -0 -0
-0 -0 -0 -0 -0 -0 -0 -0 -0 -0 -0 -0 -0 -0 -0 -0 -0 -0 -0 -0 -0 -0 -0 -0 -0 -0 -0 -0 -0 -0 -0 -0 -0 -0 -0 -0 -0 -0 -0 -0 -0 -0 -0 -0
-0 -0 -0 -0 -0 -0 -0 -0 -0 -0 -0 -0 -0 -0 -0 -0 -0 -0 -0 -0 -0 -0 -0 -0 -0 -0 -0 -0 -0 -0 -0 -0 -0 -0 -0 -0 -0 -0 -0 -0 -0 -0 -0 -0
-3 -0 -0 -0 -0 -0 -0 -0 -0 -0 -0 -0 -0 -0 -0 -0 -0 -0 -0 -0 -0 -0 -0 -0 -0 -0 -0 -0 -0 -0 -0 -0 -0 -0 -0 -0 -0 -0 -0 -0 -0 -0 -0 -0
-3 -0 -0 -0 -0 -0 -0 -0 -0 -0 -0 -0 -0 -0 -0 -0 -0 -0 -0 -0 -0 -0 -0 -0 -0 -0 -0 -0 -0 -0 -0 -0 -0 -0 -0 -0 -0 -0 -0 -0 -0 -0 -0 -0
-1 -0 -0 -0 -0 -0 -0 -0 -0 -0 -0 -0 -0 -0 -0 -0 -0 -0 -0 -0 -0 -0 -0 -0 -0 -0 -0 -0 -0 -0 -0 -0 -0 -0 -0 -0 -0 -0 -0 -0 -0 -0 -0 -0
-0 -0 -0 -0 -0 -0 -0 -0 -0 -0 -0 -0 -0 -0 -0 -0 -0 -0 -0 -0 -0 -0 -0 -0 -0 -0 -0 -0 -0 -0 -0 -0 -0 -0 -0 -0 -0 -0 -0 -0 -1 -0 -0 -0
-0 -0 -0 -0 -0 -0 -0 -0 -0 -0 -0 -0 -0 -0 -0 -0 -0 -0 -0 -0 -0 -0 -0 -0 -0 -0 -0 -0 -0 -0 -0 -0 -0 -0 -0 -0 -0 -0 -0 -0 -0 -1 -0 -0
-0 -0 -0 -0 -0 -0 -0 -0 -0 -0 -0 -0 -0 -0 -0 -0 -0 -0 -0 -0 -0 -0 -0 -0 -0 -0 -0 -0 -0 -0 -0 -0 -0 -0 -0 -0 -0 -0 -0 -0 -0 -0 -0 -0
-0 -0 -0 -0 -0 -0 -0 -0 -0 -0 -0 -0 -0 -0 -0 -0 -0 -0 -0 -0 -0 -0 -0 -0 -0 -0 -0 -0 -0 -0 -0 -0 -0 -0 -0 -0 -0 -0 -0 -0 -0 -0 -0 -0
-0 -0 -0 -0 -0 -0 -0 -0 -0 -0 -0 -0 -0 -0 -0 -0 -0 -0 -0 -0 -0 -0 -0 -0 -0 -0 -0 -0 -0 -0 -0 -0 -0 -0 -0 -0 -0 -0 -0 -0 -0 -0 -0 -0
-0 -0 -0 -0 -0 -0 -0 -0 -0 -0 -0 -0 -0 -0 -0 -0 -0 -0 -0 -0 -0 -0 -0 -0 -0 -0 -0 -0 -0 -0 -0 -0 -0 -0 -0 -0 -0 -0 -0 -0 -0 -0 -0 -1
-0 -0 -0 -0 -0 -0 -0 -0 -0 -0 -0 -0 -0 -0 -0 -0 -0 -0 -0 -0 -0 -0 -0 -0 -0 -0 -0 -0 -0 -0 -0 -0 -0 -0 -0 -0 -0 -0 -0 -0 -0 -0 -1 -1
-0 -0 -0 -0 -0 -0 -0 -0 -0 -0 -0 -0 -0 -0 -0 -0 -0 -0 -0 -0 -0 -0 -0 -0 -0 -0 -0 -0 -0 -0 -0 -0 -0 -0 -0 -0 -0 -0 -0 -0 -0 -0 -0 -0
-0 -0 -0 -0 -0 -0 -0 -0 -0 -0 -0 -0 -0 -0 -0 -0 -0 -0 -0 -0 -0 -0 -0 -0 -0 -0 -0 -0 -0 -0 -0 -0 -0 -0 -0 -0 -0 -0 -0 -0 -0 -0 -0 -0
Wind_Speed
28 30 30 31 30 26 10 11 13 14 8 12 8 13 9 5 13 8 9 10 11 10 7 7 5 6 6 7 7 5 5 4 2 5 3 1 3 6 5 5 4 0 3 4
27 29 29 30 28 23 4 10 11 13 13 13 13 12 11 16 15 15 7 10 10 8 5 3 5 5 5 7 8 7 8 2 3 6 4 5 4 6 4 6 4 2 4 5
26 27 28 30 26 21 5 4 5 8 11 13 13 11 14 7 12 14 10 10 6 3 8 8 5 4 5 4 8 6 4 3 5 7 7 5 5 10 8 3 4 7 6 5
24 25 27 29 25 22 3 5 6 5 9 11 13 15 12 15 8 10 15 10 15 5 4 5 5 6 2 2 7 3 4 3 4 5 6 6 7 8 10 9 5 6 8 6
23 24 25 25 25 17 7 4 4 7 9 11 14 10 11 13 9 10 7 10 11 12 7 6 5 6 8 7 6 3 3 2 2 4 4 6 12 13 10 8 10 3 8 4
21 21 22 23 25 10 5 4 2 2 8 10 6 9 11 11 3 8 8 8 5 9 7 6 5 5 5 5 6 6 5 4 4 5 3 5 3 10 10 10 11 4 9 12
19 19 19 18 20 12 5 3 2 3 8 8 8 7 6 8 9 5 8 9 6 3 0 1 2 3 3 4 6 6 5 2 3 2 5 4 6 4 7 12 11 13 13 13
17 17 16 17 15 13 6 3 2 2 4 4 7 10 8 2 2 5 5 6 4 2 2 3 4 5 4 3 5 8 7 3 1 3 4 6 6 4 4 5 7 12 14 14
14 15 15 12 14 9 4 6 4 2 1 8 5 7 5 5 6 2 5 2 1 2 3 3 4 5 4 4 4 1 3 3 4 3 4 2 6 7 6 4 4 14 15 14
12 12 14 12 12 10 4 5 6 3 5 4 6 4 4 5 3 4 2 6 4 2 3 3 4 4 2 3 5 6 6 4 5 5 3 5 9 12 4 6 6 15 15 15
10 11 11 11 8 8 3 4 7 2 4 4 5 4 4 2 3 4 7 3 1 3 2 3 2 3 4 2 3 3 5 5 4 4 3 2 16 4 5 6 11 14 15 14
6 8 10 12 7 3 2 3 3 5 4 4 2 4 4 2 3 3 3 3 3 4 2 2 2 1 1 2 2 2 1 5 4 4 5 8 12 7 6 11 11 14 13 14
4 3 5 10 8 8 5 4 2 3 3 3 3 1 2 1 3 2 3 2 2 2 2 3 2 3 3 3 5 2 4 5 3 8 6 13 5 4 11 13 12 12 12 14
3 2 4 7 10 9 3 2 2 1 1 1 3 1 1 3 4 1 3 1 2 1 2 1 2 1 3 3 3 5 5 6 10 9 2 15 8 10 16 11 11 12 13 13
1 2 3 6 8 10 6 4 3 2 1 1 3 3 2 1 3 4 2 0 2 1 1 1 3 2 2 2 3 4 4 3 4 6 13 11 14 16 15 14 15 14 14 15
5 4 2 8 6 1 2 2 2 3 2 2 3 3 2 2 1 4 6 3 2 2 2 3 3 1 3 2 3 5 3 3 6 9 14 10 14 11 12 15 15 14 15 14
7 5 6 4 5 1 2 3 3 4 0 1 2 3 3 2 1 1 1 2 2 2 2 1 2 2 3 2 2 4 5 7 8 4 9 7 4 11 14 11 13 15 13 12
9 6 6 7 8 6 2 3 4 1 1 1 0 1 3 4 1 0 2 0 2 3 2 2 1 3 1 2 2 4 8 10 6 6 7 10 12 11 11 11 11 13 12 13
9 8 4 1 2 2 2 2 2 2 3 2 2 4 3 3 1 1 2 1 1 0 1 2 3 2 2 3 2 7 7 6 11 12 10 7 7 11 12 13 13 13 13 14
9 2 2 2 2 1 1 2 1 3 3 3 2 1 2 3 3 1 3 1 1 2 3 1 2 1 4 3 2 4 5 5 7 10 10 12 12 13 15 15 14 14 14 16
1 2 2 2 1 2 1 1 2 2 2 2 2 2 4 2 3 2 2 2 0 2 3 3 2 2 3 2 3 3 4 5 6 9 11 11 13 13 13 14 15 14 15 15
1 2 2 1 1 1 1 1 0 1 2 1 2 3 2 1 1 3 1 2 1 1 2 2 2 3 2 2 4 6 5 6 8 9 11 11 12 12 12 13 14 14 15 15
1 1 1 2 1 1 1 2 1 1 2 1 2 1 2 2 1 0 2 3 1 0 2 1 2 3 1 2 4 6 6 7 8 10 10 11 12 12 12 13 12 14 13 13
1 1 3 1 1 1 1 0 1 2 1 1 2 1 2 1 2 2 3 2 2 2 2 1 2 3 1 3 4 5 7 8 9 10 10 11 11 11 12 11 10 10 11 13
1 1 3 3 2 2 2 2 1 2 2 1 1 2 2 0 2 1 1 2 2 2 2 2 3 3 1 3 5 5 6 7 8 9 9 10 11 11 12 11 11 10 11 12
1 2 3 2 1 2 2 2 1 3 2 2 1 1 2 2 1 3 2 2 2 1 0 2 1 2 1 3 4 5 6 5 6 7 8 9 9 10 11 11 10 10 11 10
2 1 0 1 1 2 2 2 3 3 2 0 1 2 1 1 2 2 3 2 2 1 1 1 3 1 1 2 3 4 5 6 7 8 8 8 9 8 9 10 12 11 11 9
Wind_Direction
5 1 0 359 357 358 357 41 57 349 16 64 56 56 33 26 31 34 47 40 44 37 25 38 65 66 42 5 346 2 37 319 341 38 102 33 30 5 329 295 24 159 287 88
6 4 3 0 359 8 321 62 58 34 19 58 67 77 76 50 42 37 33 36 38 34 38 60 49 56 28 9 7 13 357 101 237 163 174 186 49 33 333 284 255 325 314 64
9 7 6 1 2 4 354 43 46 43 38 51 59 57 43 68 40 49 47 37 39 24 47 45 50 39 35 14 5 5 306 353 13 21 30 334 28 21 4 313 302 336 43 351
10 11 10 5 3 6 334 42 55 17 37 42 61 62 57 54 34 47 20 38 29 24 35 55 39 22 19 84 16 31 3 56 52 70 82 78 59 35 37 40 359 4 353 349
12 11 13 12 5 359 55 78 90 67 67 56 56 47 45 43 32 19 26 35 29 40 58 36 359 354 22 30 334 32 1 90 187 108 122 91 65 31 31 34 4 358 319 91
15 17 18 16 10 3 59 54 20 81 43 42 53 31 42 41 14 48 39 3 2 41 33 17 36 49 59 46 9 7 4 338 278 109 174 208 118 17 52 63 44 331 11 330
20 21 24 23 22 30 77 42 14 70 73 63 47 25 38 30 42 42 37 19 37 41 156 190 171 108 91 53 43 22 341 342 309 64 199 224 97 91 103 83 45 26 26 25
23 23 29 27 29 36 65 27 23 58 82 16 40 12 357 30 96 47 38 38 24 304 235 258 244 189 204 53 37 24 19 294 11 288 35 108 151 56 351 339 70 27 6 5
26 28 34 35 33 30 65 47 355 50 56 36 324 329 11 347 350 176 56 76 9 250 273 243 334 34 326 349 354 39 350 180 290 352 318 347 40 357 327 261 185 15 1 354
25 27 31 34 32 42 69 60 6 66 96 47 339 23 346 327 332 278 36 351 346 254 305 35 2 64 326 350 4 347 346 350 5 354 355 112 7 336 338 221 41 357 351 345
28 25 26 28 33 44 47 77 19 57 83 68 41 35 8 324 345 341 7 252 108 344 32 344 54 347 55 236 54 16 340 315 26 287 301 169 8 352 335 28 1 342 336 328
27 26 21 20 26 53 27 90 53 38 70 93 98 90 70 7 307 310 330 37 28 16 294 52 267 103 202 352 87 156 202 6 325 348 20 26 351 90 71 27 342 337 328 328
11 62 28 27 53 66 73 101 67 71 114 145 196 62 116 280 345 309 297 106 4 101 342 358 40 66 301 341 60 267 100 14 332 320 53 351 6 91 17 357 345 338 326 323
14 60 102 51 59 64 66 68 49 302 180 171 109 115 67 4 11 272 274 309 96 65 289 7 11 31 350 57 67 57 1 347 327 285 344 341 197 1 358 348 342 329 322 315
56 35 171 135 93 66 64 70 57 21 328 22 132 148 98 33 25 60 61 138 281 333 187 357 66 81 227 81 118 91 18 19 327 291 330 309 303 337 337 342 334 329 321 314
146 65 51 199 176 102 305 203 83 35 359 186 179 95 140 63 132 69 58 61 42 25 17 90 101 108 291 244 80 128 119 331 278 286 326 307 297 317 344 324 317 313 311 312
163 131 69 118 127 103 344 17 2 5 304 231 150 194 137 12 185 116 93 91 69 10 105 77 92 110 302 42 71 18 337 325 317 312 350 295 347 311 318 306 307 305 303 302
163 146 124 108 103 125 168 32 15 132 97 2 289 49 187 1 29 353 355 41 158 33 86 158 67 142 72 123 8 337 333 324 304 339 322 288 297 302 306 304 304 313 314 308
166 129 115 193 222 214 89 315 94 45 22 90 38 348 354 339 88 337 179 317 169 101 120 82 260 158 180 93 331 320 328 321 304 315 301 282 292 309 314 320 324 319 317 324
121 136 235 226 121 342 228 180 180 41 21 19 72 350 320 331 351 97 302 1 67 217 73 267 237 124 103 134 22 303 305 304 306 309 321 324 324 325 325 328 325 325 323 325
193 217 233 66 291 191 37 91 22 13 84 35 51 360 324 62 311 354 28 351 356 243 96 274 173 205 149 146 312 302 293 295 290 284 299 311 315 318 324 321 328 326 324 323
78 84 95 170 34 131 114 38 199 10 19 100 319 22 328 73 302 275 100 301 231 282 356 250 232 105 143 309 309 311 317 310 310 318 315 316 316 321 319 319 324 324 323 320
123 127 104 322 31 72 242 326 110 291 156 70 1 330 338 183 184 143 270 254 59 253 222 279 28 111 351 319 310 319 327 323 322 322 321 321 321 325 322 323 324 324 320 318
224 208 264 261 164 200 157 242 67 84 99 27 354 278 311 0 248 326 275 60 260 247 251 320 119 32 316 320 315 318 324 330 327 323 323 324 327 324 324 331 328 314 322 320
206 198 241 190 88 82 73 76 170 112 81 106 181 194 264 173 259 287 298 236 257 263 326 2 359 62 16 305 326 323 318 320 319 320 322 319 323 323 324 331 318 330 320 332
142 134 143 109 195 155 195 191 147 131 110 133 213 280 245 223 290 236 225 282 273 34 275 359 101 152 241 300 313 313 316 307 311 314 316 322 326 326 322 316 333 333 323 331
171 159 52 131 43 78 124 137 112 128 163 15 155 241 272 74 230 238 202 237 5 21 5 91 102 146 295 297 296 311 310 316 322 323 328 321 320 325 322 332 342 332 334 333